Time,TemperatureF,DewpointF,PressureIn,WindDirection,WindDirectionDegrees,WindSpeedMPH,WindSpeedGustMPH,Humidity,HourlyPrecipIn,Conditions,Clouds,dailyrainin,SoftwareType,DateUTC
2013-10-20 00:02:00,49.7,45.1,30.06,NW,315,0.0,0.0,84,0.00,,---,0.00,VWS V14.01,2013-10-20 05:02:00,
2013-10-20 00:07:00,49.7,45.1,30.06,NW,315,0.0,0.0,84,0.00,,---,0.00,VWS V14.01,2013-10-20 05:07:00,
2013-10-20 00:12:00,49.7,45.4,30.06,NW,315,0.0,0.0,85,0.00,,---,0.00,VWS V14.01,2013-10-20 05:12:00,
2013-10-20 00:17:00,49.6,45.2,30.06,NW,315,0.0,0.0,85,0.00,,---,0.00,VWS V14.01,2013-10-20 05:17:00,
2013-10-20 00:22:00,49.6,45.2,30.06,NW,315,0.0,0.0,85,0.00,,---,0.00,VWS V14.01,2013-10-20 05:22:00,
2013-10-20 00:27:00,49.4,45.1,30.06,NW,315,0.0,0.0,85,0.00,,---,0.00,VWS V14.01,2013-10-20 05:27:00,
2013-10-20 00:32:00,49.0,44.7,30.06,NW,315,0.0,0.0,85,0.00,,---,0.00,VWS V14.01,2013-10-20 05:32:00,
2013-10-20 00:37:00,48.8,44.5,30.06,NW,315,0.0,0.0,85,0.00,,---,0.00,VWS V14.01,2013-10-20 05:37:00,
2013-10-20 00:42:00,48.8,44.5,30.06,NW,315,0.0,0.0,85,0.00,,---,0.00,VWS V14.01,2013-10-20 05:42:00,
2013-10-20 00:47:00,48.8,44.5,30.06,NW,315,0.0,0.0,85,0.00,,---,0.00,VWS V14.01,2013-10-20 05:47:00,
2013-10-20 00:52:00,49.0,45.0,30.06,NW,315,0.0,0.0,86,0.00,,---,0.00,VWS V14.01,2013-10-20 05:52:00,
2013-10-20 00:57:00,49.0,45.0,30.06,NW,315,0.0,0.0,86,0.00,,---,0.00,VWS V14.01,2013-10-20 05:57:00,
2013-10-20 01:02:00,49.2,45.2,30.06,NW,315,0.0,0.0,86,0.00,,---,0.00,VWS V14.01,2013-10-20 06:02:00,
2013-10-20 01:07:00,49.2,45.2,30.06,NW,315,0.0,0.0,86,0.00,,---,0.00,VWS V14.01,2013-10-20 06:07:00,
2013-10-20 01:12:00,49.0,45.0,30.06,NW,315,0.0,0.0,86,0.00,,---,0.04,VWS V14.01,2013-10-20 06:12:00,
2013-10-20 01:17:00,48.7,44.7,30.06,NW,315,0.0,0.0,86,0.00,,---,0.00,VWS V14.01,2013-10-20 06:17:00,
2013-10-20 01:22:00,48.5,44.5,30.06,NW,315,0.0,0.0,86,0.00,,---,0.00,VWS V14.01,2013-10-20 06:22:00,
2013-10-20 01:27:00,48.5,44.5,30.06,NW,315,0.0,0.0,86,0.00,,---,0.00,VWS V14.01,2013-10-20 06:27:00,
2013-10-20 01:32:00,48.5,44.5,30.06,NW,315,0.0,0.0,86,0.00,,---,0.00,VWS V14.01,2013-10-20 06:32:00,
2013-10-20 01:37:00,48.5,44.5,30.06,NW,315,0.0,0.0,86,0.00,,---,0.00,VWS V14.01,2013-10-20 06:37:00,
2013-10-20 01:42:00,48.5,44.8,30.06,NW,315,0.0,0.0,87,0.00,,---,0.00,VWS V14.01,2013-10-20 06:42:00,
2013-10-20 01:47:00,48.5,44.8,30.06,NW,315,0.0,0.0,87,0.00,,---,0.00,VWS V14.01,2013-10-20 06:47:00,
2013-10-20 01:52:00,48.5,44.8,30.06,NW,315,0.0,0.0,87,0.00,,---,0.00,VWS V14.01,2013-10-20 06:52:00,
2013-10-20 01:57:00,48.5,44.8,30.06,NW,315,0.0,0.0,87,0.00,,---,0.00,VWS V14.01,2013-10-20 06:57:00,
2013-10-20 02:02:00,48.3,44.3,30.06,NW,315,0.0,0.0,86,0.00,,---,0.00,VWS V14.01,2013-10-20 07:02:00,
2013-10-20 02:07:00,48.3,44.3,30.06,NW,315,0.0,0.0,86,0.00,,---,0.00,VWS V14.01,2013-10-20 07:07:00,
2013-10-20 02:12:00,48.1,44.1,30.06,NW,315,0.0,0.0,86,0.00,,---,0.00,VWS V14.01,2013-10-20 07:12:00,
2013-10-20 02:17:00,48.1,44.1,30.06,NW,315,0.0,0.0,86,0.00,,---,0.00,VWS V14.01,2013-10-20 07:17:00,
2013-10-20 02:22:00,47.9,44.0,30.06,NW,315,0.0,0.0,86,0.00,,---,0.00,VWS V14.01,2013-10-20 07:22:00,
2013-10-20 02:27:00,47.6,43.3,30.06,NW,315,0.0,0.0,85,0.00,,---,0.00,VWS V14.01,2013-10-20 07:27:00,
2013-10-20 02:32:00,47.2,43.0,30.06,NW,315,0.0,0.0,85,0.00,,---,0.04,VWS V14.01,2013-10-20 07:32:00,
2013-10-20 02:37:00,47.0,42.8,30.06,NW,315,0.0,0.0,85,0.00,,---,0.00,VWS V14.01,2013-10-20 07:37:00,
2013-10-20 02:42:00,46.9,42.9,30.06,NW,315,0.0,0.0,86,0.00,,---,0.00,VWS V14.01,2013-10-20 07:42:00,
2013-10-20 02:47:00,46.9,42.9,30.06,NW,315,0.0,0.0,86,0.00,,---,0.04,VWS V14.01,2013-10-20 07:47:00,
2013-10-20 02:52:00,46.3,42.1,30.06,NW,315,0.0,0.0,85,0.00,,---,0.04,VWS V14.01,2013-10-20 07:52:00,
2013-10-20 02:57:00,46.1,41.9,30.06,NW,315,0.0,0.0,85,0.00,,---,0.00,VWS V14.01,2013-10-20 07:57:00,
2013-10-20 03:02:00,46.0,41.7,30.06,NW,315,0.0,0.0,85,0.00,,---,0.00,VWS V14.01,2013-10-20 08:02:00,
2013-10-20 03:07:00,45.6,41.4,30.06,NW,315,0.0,0.0,85,0.00,,---,0.00,VWS V14.01,2013-10-20 08:07:00,
2013-10-20 03:12:00,45.6,41.7,30.06,NW,315,0.0,0.0,86,0.00,,---,0.00,VWS V14.01,2013-10-20 08:12:00,
2013-10-20 03:17:00,45.8,42.1,30.06,NW,315,0.0,0.0,87,0.00,,---,0.00,VWS V14.01,2013-10-20 08:17:00,
2013-10-20 03:22:00,45.8,42.1,30.06,NW,315,0.0,0.0,87,0.00,,---,0.00,VWS V14.01,2013-10-20 08:22:00,
2013-10-20 03:27:00,45.8,42.1,30.06,SSE,158,0.0,0.0,87,0.00,,---,0.00,VWS V14.01,2013-10-20 08:27:00,
2013-10-20 03:32:00,45.8,42.1,30.06,SSE,158,0.0,0.0,87,0.00,,---,0.00,VWS V14.01,2013-10-20 08:32:00,
2013-10-20 03:37:00,45.4,41.8,30.06,WSW,248,0.0,0.0,87,0.00,,---,0.00,VWS V14.01,2013-10-20 08:37:00,
2013-10-20 03:42:00,45.2,41.6,30.06,WSW,248,0.0,0.0,87,0.00,,---,0.00,VWS V14.01,2013-10-20 08:42:00,
2013-10-20 03:47:00,45.1,41.1,30.06,WSW,248,0.0,0.0,86,0.00,,---,0.00,VWS V14.01,2013-10-20 08:47:00,
2013-10-20 03:52:00,44.9,41.2,30.06,WSW,248,0.0,0.0,87,0.00,,---,0.00,VWS V14.01,2013-10-20 08:52:00,
2013-10-20 03:57:00,44.7,40.8,30.06,WSW,248,0.0,0.0,86,0.00,,---,0.00,VWS V14.01,2013-10-20 08:57:00,
2013-10-20 04:02:00,44.7,40.8,30.06,WSW,248,0.0,0.0,86,0.00,,---,0.00,VWS V14.01,2013-10-20 09:02:00,
2013-10-20 04:08:00,44.7,41.1,30.06,WSW,248,0.0,0.0,87,0.00,,---,0.00,VWS V14.01,2013-10-20 09:08:00,
2013-10-20 04:13:00,44.7,41.1,30.06,WSW,248,0.0,0.0,87,0.00,,---,0.00,VWS V14.01,2013-10-20 09:13:00,
2013-10-20 04:18:00,44.7,41.1,30.06,WSW,248,0.0,0.0,87,0.00,,---,0.00,VWS V14.01,2013-10-20 09:18:00,
2013-10-20 04:23:00,44.5,40.9,30.06,WSW,248,0.0,0.0,87,0.00,,---,0.00,VWS V14.01,2013-10-20 09:23:00,
2013-10-20 04:28:00,44.2,40.2,30.06,WSW,248,0.0,0.0,86,0.00,,---,0.00,VWS V14.01,2013-10-20 09:28:00,
2013-10-20 04:33:00,44.0,40.1,30.06,WSW,248,0.0,0.0,86,0.00,,---,0.00,VWS V14.01,2013-10-20 09:33:00,
2013-10-20 04:38:00,43.8,39.9,30.06,WSW,248,0.0,0.0,86,0.00,,---,0.00,VWS V14.01,2013-10-20 09:38:00,
2013-10-20 04:43:00,43.8,40.2,30.06,WSW,248,0.0,0.0,87,0.00,,---,0.00,VWS V14.01,2013-10-20 09:43:00,
2013-10-20 04:48:00,44.0,40.4,30.06,WSW,248,0.0,0.0,87,0.00,,---,0.00,VWS V14.01,2013-10-20 09:48:00,
2013-10-20 04:53:00,43.8,40.2,30.06,WSW,248,0.0,0.0,87,0.00,,---,0.00,VWS V14.01,2013-10-20 09:53:00,
2013-10-20 04:58:00,43.8,40.2,30.06,WSW,248,0.0,0.0,87,0.00,,---,0.00,VWS V14.01,2013-10-20 09:58:00,
2013-10-20 05:03:00,43.4,39.8,30.06,WSW,248,0.0,0.0,87,0.00,,---,0.00,VWS V14.01,2013-10-20 10:03:00,
2013-10-20 05:08:00,43.4,39.8,30.06,WSW,248,0.0,0.0,87,0.00,,---,0.00,VWS V14.01,2013-10-20 10:08:00,
2013-10-20 05:13:00,43.3,39.7,30.06,WSW,248,0.0,0.0,87,0.00,,---,0.00,VWS V14.01,2013-10-20 10:13:00,
2013-10-20 05:18:00,43.3,39.7,30.06,WSW,248,0.0,0.0,87,0.00,,---,0.00,VWS V14.01,2013-10-20 10:18:00,
2013-10-20 05:23:00,43.3,39.7,30.06,WSW,248,0.0,0.0,87,0.00,,---,0.00,VWS V14.01,2013-10-20 10:23:00,
2013-10-20 05:28:00,42.9,39.0,30.06,WSW,248,0.0,0.0,86,0.00,,---,0.00,VWS V14.01,2013-10-20 10:28:00,
2013-10-20 05:33:00,42.7,38.8,30.06,WSW,248,0.0,0.0,86,0.00,,---,0.00,VWS V14.01,2013-10-20 10:33:00,
2013-10-20 05:38:00,42.4,38.5,30.06,WSW,248,0.0,0.0,86,0.00,,---,0.04,VWS V14.01,2013-10-20 10:38:00,
2013-10-20 05:43:00,42.2,38.3,30.06,WSW,248,0.0,0.0,86,0.00,,---,0.00,VWS V14.01,2013-10-20 10:43:00,
2013-10-20 05:48:00,42.2,38.3,30.06,WSW,248,0.0,0.0,86,0.00,,---,0.00,VWS V14.01,2013-10-20 10:48:00,
2013-10-20 05:53:00,42.4,38.8,30.06,WSW,248,0.0,0.0,87,0.00,,---,0.00,VWS V14.01,2013-10-20 10:53:00,
2013-10-20 05:58:00,42.0,38.1,30.06,WSW,248,0.0,0.0,86,0.00,,---,0.04,VWS V14.01,2013-10-20 10:58:00,
2013-10-20 06:03:00,42.0,38.1,30.06,WSW,248,0.0,0.0,86,0.00,,---,0.00,VWS V14.01,2013-10-20 11:03:00,
2013-10-20 06:08:00,42.0,38.1,30.06,WSW,248,0.0,0.0,86,0.00,,---,0.00,VWS V14.01,2013-10-20 11:08:00,
2013-10-20 06:13:00,42.0,38.4,30.06,WSW,248,0.0,0.0,87,0.00,,---,0.00,VWS V14.01,2013-10-20 11:13:00,
2013-10-20 06:18:00,42.0,38.4,30.06,WSW,248,0.0,0.0,87,0.00,,---,0.00,VWS V14.01,2013-10-20 11:18:00,
2013-10-20 06:23:00,42.0,38.4,30.06,WSW,248,0.0,0.0,87,0.00,,---,0.00,VWS V14.01,2013-10-20 11:23:00,
2013-10-20 06:28:00,41.5,37.6,30.06,WSW,248,0.0,0.0,86,0.00,,---,0.00,VWS V14.01,2013-10-20 11:28:00,
2013-10-20 06:33:00,41.3,37.4,30.06,WSW,248,0.0,0.0,86,0.00,,---,0.04,VWS V14.01,2013-10-20 11:33:00,
2013-10-20 06:38:00,41.5,37.9,30.06,WSW,248,0.0,0.0,87,0.00,,---,0.00,VWS V14.01,2013-10-20 11:38:00,
2013-10-20 06:43:00,41.5,37.9,30.06,WSW,248,0.0,0.0,87,0.00,,---,0.00,VWS V14.01,2013-10-20 11:43:00,
2013-10-20 06:48:00,41.5,37.9,30.06,WSW,248,0.0,0.0,87,0.00,,---,0.00,VWS V14.01,2013-10-20 11:48:00,
2013-10-20 06:53:00,41.1,37.5,30.06,WSW,248,0.0,0.0,87,0.00,,---,0.00,VWS V14.01,2013-10-20 11:53:00,
2013-10-20 06:58:00,40.9,37.1,30.06,WSW,248,0.0,0.0,86,0.00,,---,0.00,VWS V14.01,2013-10-20 11:58:00,
2013-10-20 07:03:00,40.9,37.4,30.06,WSW,248,0.0,0.0,87,0.00,,---,0.00,VWS V14.01,2013-10-20 12:03:00,
2013-10-20 07:08:00,40.7,36.9,30.06,West,270,0.0,0.0,86,0.00,,---,0.00,VWS V14.01,2013-10-20 12:08:00,
2013-10-20 07:13:00,40.6,36.7,30.06,West,270,0.0,0.0,86,0.00,,---,0.00,VWS V14.01,2013-10-20 12:13:00,
2013-10-20 07:18:00,40.4,36.5,30.06,West,270,0.0,0.0,86,0.00,,---,0.00,VWS V14.01,2013-10-20 12:18:00,
2013-10-20 07:23:00,40.2,36.3,30.06,West,270,0.0,0.0,86,0.00,,---,0.00,VWS V14.01,2013-10-20 12:23:00,
2013-10-20 07:28:00,40.2,36.3,30.06,WNW,292,0.0,0.0,86,0.00,,---,0.00,VWS V14.01,2013-10-20 12:28:00,
2013-10-20 07:33:00,40.2,36.7,30.06,WSW,248,0.0,0.0,87,0.00,,---,0.00,VWS V14.01,2013-10-20 12:33:00,
2013-10-20 07:38:00,40.4,36.8,30.06,WSW,248,0.0,0.0,87,0.00,,---,0.00,VWS V14.01,2013-10-20 12:38:00,
2013-10-20 07:43:00,40.4,36.8,30.06,West,270,0.0,0.0,87,0.00,,---,0.00,VWS V14.01,2013-10-20 12:43:00,
2013-10-20 07:49:00,40.4,36.8,30.06,West,270,0.0,0.0,87,0.00,,---,0.00,VWS V14.01,2013-10-20 12:49:00,
2013-10-20 08:01:00,40.7,37.5,30.06,West,270,0.0,0.0,88,0.00,,---,0.00,VWS V14.01,2013-10-20 13:01:00,
2013-10-20 08:12:00,41.6,38.9,30.09,WSW,248,0.0,0.0,90,0.00,,---,0.00,VWS V14.01,2013-10-20 13:12:00,
2013-10-20 08:18:00,42.0,39.3,30.09,WSW,248,0.0,0.0,90,0.00,,---,0.00,VWS V14.01,2013-10-20 13:18:00,
2013-10-20 08:23:00,42.5,40.1,30.09,WSW,248,0.0,0.0,91,0.00,,---,0.04,VWS V14.01,2013-10-20 13:23:00,
2013-10-20 08:28:00,42.7,40.3,30.09,WSW,248,0.0,0.0,91,0.00,,---,0.00,VWS V14.01,2013-10-20 13:28:00,
2013-10-20 08:33:00,43.3,41.1,30.09,WSW,248,0.0,0.0,92,0.00,,---,0.00,VWS V14.01,2013-10-20 13:33:00,
2013-10-20 08:38:00,43.8,41.6,30.09,WSW,248,0.0,0.0,92,0.00,,---,0.00,VWS V14.01,2013-10-20 13:38:00,
2013-10-20 08:43:00,44.3,42.2,30.09,WSW,248,0.0,0.0,92,0.00,,---,0.00,VWS V14.01,2013-10-20 13:43:00,
2013-10-20 08:48:00,44.9,43.0,30.09,North,0,0.0,0.0,93,0.00,,---,0.00,VWS V14.01,2013-10-20 13:48:00,
2013-10-20 08:53:00,45.6,43.7,30.09,NNW,338,0.0,0.0,93,0.00,,---,0.00,VWS V14.01,2013-10-20 13:53:00,
2013-10-20 08:58:00,46.3,44.7,30.09,NNW,338,0.0,0.0,94,0.00,,---,0.00,VWS V14.01,2013-10-20 13:58:00,
2013-10-20 09:03:00,47.2,45.6,30.09,North,0,0.0,0.0,94,0.00,,---,0.04,VWS V14.01,2013-10-20 14:03:00,
2013-10-20 09:08:00,47.9,46.6,30.09,North,0,0.0,0.0,95,0.00,,---,0.00,VWS V14.01,2013-10-20 14:08:00,
2013-10-20 09:13:00,48.7,47.3,30.09,NNW,338,0.0,0.0,95,0.00,,---,0.00,VWS V14.01,2013-10-20 14:13:00,
2013-10-20 09:18:00,49.4,48.0,30.09,WNW,292,0.9,0.9,95,0.00,,---,0.00,VWS V14.01,2013-10-20 14:18:00,
2013-10-20 09:23:00,49.9,48.5,30.09,North,0,0.0,1.1,95,0.00,,---,0.00,VWS V14.01,2013-10-20 14:23:00,
2013-10-20 09:28:00,50.5,49.1,30.09,ENE,68,0.9,0.9,95,0.00,,---,0.00,VWS V14.01,2013-10-20 14:28:00,
2013-10-20 09:33:00,51.0,49.3,30.09,SSE,158,0.0,0.0,94,0.00,,---,0.00,VWS V14.01,2013-10-20 14:33:00,
2013-10-20 09:38:00,51.7,49.8,30.09,ESE,112,0.0,0.0,93,0.00,,---,0.00,VWS V14.01,2013-10-20 14:38:00,
2013-10-20 09:43:00,52.4,50.2,30.09,NE,45,0.0,0.0,92,0.00,,---,0.00,VWS V14.01,2013-10-20 14:43:00,
2013-10-20 09:48:00,52.8,50.0,30.09,WSW,248,0.0,1.1,90,0.00,,---,0.00,VWS V14.01,2013-10-20 14:48:00,
2013-10-20 09:53:00,53.2,48.8,30.09,NNE,22,0.0,0.0,85,0.00,,---,0.00,VWS V14.01,2013-10-20 14:53:00,
2013-10-20 09:58:00,53.7,49.0,30.09,NNE,22,1.1,1.1,84,0.00,,---,0.00,VWS V14.01,2013-10-20 14:58:00,
2013-10-20 10:03:00,54.1,48.4,30.09,NW,315,0.0,1.3,81,0.00,,---,0.00,VWS V14.01,2013-10-20 15:03:00,
2013-10-20 10:08:00,54.8,49.1,30.09,SSE,158,2.9,3.8,81,0.00,,---,0.00,VWS V14.01,2013-10-20 15:08:00,
2013-10-20 10:13:00,55.1,48.8,30.09,ESE,112,0.0,0.0,79,0.00,,---,0.00,VWS V14.01,2013-10-20 15:13:00,
2013-10-20 10:18:00,55.7,49.3,30.09,NNE,22,0.0,0.0,79,0.00,,---,0.00,VWS V14.01,2013-10-20 15:18:00,
2013-10-20 10:23:00,56.4,49.3,30.09,ENE,68,0.0,0.0,77,0.00,,---,0.00,VWS V14.01,2013-10-20 15:23:00,
2013-10-20 10:28:00,56.8,48.6,30.09,SSE,158,2.2,2.2,74,0.00,,---,0.00,VWS V14.01,2013-10-20 15:28:00,
2013-10-20 10:33:00,57.1,48.9,30.09,SSW,202,0.0,0.0,74,0.00,,---,0.00,VWS V14.01,2013-10-20 15:33:00,
2013-10-20 10:38:00,57.3,48.0,30.09,North,0,0.0,0.0,71,0.00,,---,0.00,VWS V14.01,2013-10-20 15:38:00,
2013-10-20 10:43:00,57.5,46.6,30.09,NNE,22,0.9,0.9,67,0.00,,---,0.00,VWS V14.01,2013-10-20 15:43:00,
2013-10-20 10:48:00,57.8,47.4,30.09,WSW,248,0.0,0.0,68,0.00,,---,0.00,VWS V14.01,2013-10-20 15:48:00,
2013-10-20 10:53:00,57.8,45.8,30.09,WNW,292,2.2,2.5,64,0.00,,---,0.04,VWS V14.01,2013-10-20 15:53:00,
2013-10-20 10:58:00,58.2,46.9,30.09,North,0,0.0,0.0,66,0.00,,---,0.00,VWS V14.01,2013-10-20 15:58:00,
2013-10-20 11:03:00,58.6,45.2,30.09,NW,315,0.0,1.6,61,0.00,,---,0.00,VWS V14.01,2013-10-20 16:03:00,
2013-10-20 11:08:00,59.1,47.4,30.09,ESE,112,0.0,0.0,65,0.00,,---,0.00,VWS V14.01,2013-10-20 16:08:00,
2013-10-20 11:13:00,59.5,47.7,30.09,ENE,68,0.9,1.6,65,0.00,,---,0.00,VWS V14.01,2013-10-20 16:13:00,
2013-10-20 11:18:00,59.6,47.5,30.09,WNW,292,0.0,0.0,64,0.00,,---,0.00,VWS V14.01,2013-10-20 16:18:00,
2013-10-20 11:23:00,60.2,47.1,30.09,SSW,202,0.0,0.0,62,0.00,,---,0.04,VWS V14.01,2013-10-20 16:23:00,
2013-10-20 11:28:00,60.4,45.5,30.09,ESE,112,0.0,1.3,58,0.00,,---,0.00,VWS V14.01,2013-10-20 16:28:00,
2013-10-20 11:33:00,60.7,45.9,30.09,SSW,202,1.1,1.1,58,0.00,,---,0.04,VWS V14.01,2013-10-20 16:33:00,
2013-10-20 11:36:00,61.1,46.2,30.09,SSW,202,2.0,2.0,58,0.00,,---,0.00,VWS V14.01,2013-10-20 16:36:00,
2013-10-20 11:41:00,61.4,44.7,30.09,NNE,22,0.0,0.0,54,0.00,,---,0.00,VWS V14.01,2013-10-20 16:41:00,
2013-10-20 11:46:00,61.8,41.4,30.09,WNW,292,3.1,3.1,47,0.00,,---,0.00,VWS V14.01,2013-10-20 16:46:00,
2013-10-20 11:51:00,62.2,41.7,30.09,WNW,292,2.5,3.8,47,0.00,,---,0.00,VWS V14.01,2013-10-20 16:51:00,
2013-10-20 11:56:00,62.9,42.9,30.09,NW,315,2.5,2.5,48,0.00,,---,0.00,VWS V14.01,2013-10-20 16:56:00,
2013-10-20 12:01:00,63.4,41.7,30.09,WNW,292,0.9,2.0,45,0.00,,---,0.00,VWS V14.01,2013-10-20 17:01:00,
2013-10-20 12:06:00,64.9,44.7,30.09,WSW,248,0.0,0.0,48,0.00,,---,0.00,VWS V14.01,2013-10-20 17:06:00,
2013-10-20 12:11:00,64.7,39.8,30.09,West,270,3.4,3.4,40,0.00,,---,0.00,VWS V14.01,2013-10-20 17:11:00,
2013-10-20 12:16:00,65.0,40.8,30.09,WSW,248,0.9,2.0,41,0.00,,---,0.00,VWS V14.01,2013-10-20 17:16:00,
2013-10-20 12:21:00,65.6,41.9,30.09,NE,45,0.0,0.0,42,0.00,,---,0.00,VWS V14.01,2013-10-20 17:21:00,
2013-10-20 12:26:00,65.6,40.6,30.09,ENE,68,0.0,0.0,40,0.00,,---,0.00,VWS V14.01,2013-10-20 17:26:00,
2013-10-20 12:31:00,65.9,41.0,30.09,NNE,22,0.0,0.0,40,0.00,,---,0.00,VWS V14.01,2013-10-20 17:31:00,
2013-10-20 12:36:00,66.3,40.6,30.09,WNW,292,1.6,1.6,39,0.00,,---,0.00,VWS V14.01,2013-10-20 17:36:00,
2013-10-20 12:41:00,67.0,42.6,30.06,WNW,292,0.0,0.0,41,0.00,,---,0.00,VWS V14.01,2013-10-20 17:41:00,
2013-10-20 12:46:00,67.2,42.1,30.06,SSW,202,0.0,0.0,40,0.00,,---,0.00,VWS V14.01,2013-10-20 17:46:00,
2013-10-20 12:51:00,67.6,41.1,30.06,WSW,248,2.0,2.0,38,0.00,,---,0.00,VWS V14.01,2013-10-20 17:51:00,
2013-10-20 12:56:00,67.7,41.9,30.06,West,270,0.9,1.6,39,0.00,,---,0.00,VWS V14.01,2013-10-20 17:56:00,
2013-10-20 13:01:00,67.7,41.2,30.06,ESE,112,2.7,2.7,38,0.00,,---,0.00,VWS V14.01,2013-10-20 18:01:00,
2013-10-20 13:06:00,68.1,42.2,30.06,NW,315,1.1,1.1,39,0.00,,---,0.04,VWS V14.01,2013-10-20 18:06:00,
2013-10-20 13:11:00,67.6,39.7,30.06,WNW,292,2.7,3.1,36,0.00,,---,0.00,VWS V14.01,2013-10-20 18:11:00,
2013-10-20 13:16:00,67.4,40.2,30.06,WNW,292,0.0,0.0,37,0.00,,---,0.00,VWS V14.01,2013-10-20 18:16:00,
2013-10-20 13:21:00,67.4,40.2,30.06,NW,315,0.9,1.1,37,0.00,,---,0.04,VWS V14.01,2013-10-20 18:21:00,
2013-10-20 13:26:00,67.4,38.8,30.06,NW,315,2.5,3.6,35,0.00,,---,0.00,VWS V14.01,2013-10-20 18:26:00,
2013-10-20 13:31:00,67.6,39.0,30.06,West,270,1.1,2.0,35,0.00,,---,0.00,VWS V14.01,2013-10-20 18:31:00,
2013-10-20 13:36:00,68.6,41.3,30.06,ESE,112,0.0,0.0,37,0.00,,---,0.04,VWS V14.01,2013-10-20 18:36:00,
2013-10-20 13:41:00,69.5,42.2,30.03,NNE,22,0.0,0.0,37,0.00,,---,0.00,VWS V14.01,2013-10-20 18:41:00,
2013-10-20 13:46:00,69.2,40.4,30.03,WNW,292,2.2,3.4,35,0.00,,---,0.00,VWS V14.01,2013-10-20 18:46:00,
2013-10-20 13:51:00,68.6,39.2,30.03,WNW,292,2.2,3.6,34,0.00,,---,0.00,VWS V14.01,2013-10-20 18:51:00,
2013-10-20 13:56:00,68.8,40.1,30.03,NW,315,3.6,3.6,35,0.00,,---,0.00,VWS V14.01,2013-10-20 18:56:00,
2013-10-20 14:01:00,68.6,39.9,30.03,NE,45,2.0,2.0,35,0.00,,---,0.00,VWS V14.01,2013-10-20 19:01:00,
2013-10-20 14:06:00,68.3,38.9,30.03,WNW,292,3.8,3.8,34,0.00,,---,0.00,VWS V14.01,2013-10-20 19:06:00,
2013-10-20 14:11:00,67.9,37.8,30.03,NNW,338,2.0,4.9,33,0.00,,---,0.00,VWS V14.01,2013-10-20 19:11:00,
2013-10-20 14:16:00,67.9,38.5,30.03,NNE,22,0.0,0.0,34,0.00,,---,0.00,VWS V14.01,2013-10-20 19:16:00,
2013-10-20 14:21:00,68.3,39.6,30.03,SSE,158,0.0,0.0,35,0.00,,---,0.00,VWS V14.01,2013-10-20 19:21:00,
2013-10-20 14:26:00,68.6,40.6,30.03,SSW,202,0.0,0.0,36,0.00,,---,0.00,VWS V14.01,2013-10-20 19:26:00,
2013-10-20 14:31:00,68.6,41.3,30.03,NNW,338,0.0,0.0,37,0.00,,---,0.00,VWS V14.01,2013-10-20 19:31:00,
2013-10-20 14:36:00,68.8,41.5,30.03,NW,315,0.0,0.0,37,0.00,,---,0.00,VWS V14.01,2013-10-20 19:36:00,
2013-10-20 14:41:00,68.8,40.8,30.03,WNW,292,0.0,0.0,36,0.00,,---,0.00,VWS V14.01,2013-10-20 19:41:00,
2013-10-20 14:46:00,68.5,39.8,30.03,WSW,248,0.0,1.1,35,0.00,,---,0.00,VWS V14.01,2013-10-20 19:46:00,
2013-10-20 14:51:00,68.5,40.5,30.03,NNE,22,0.0,0.0,36,0.00,,---,0.00,VWS V14.01,2013-10-20 19:51:00,
2013-10-20 14:56:00,68.3,39.6,30.03,NW,315,6.0,6.0,35,0.00,,---,0.04,VWS V14.01,2013-10-20 19:56:00,
2013-10-20 15:02:00,68.1,38.7,30.03,WNW,292,3.1,3.1,34,0.00,,---,0.00,VWS V14.01,2013-10-20 20:02:00,
2013-10-20 15:07:00,67.9,38.5,30.03,NNE,22,0.0,0.0,34,0.00,,---,0.00,VWS V14.01,2013-10-20 20:07:00,
2013-10-20 15:12:00,67.9,38.5,30.03,NW,315,0.0,0.0,34,0.00,,---,0.00,VWS V14.01,2013-10-20 20:12:00,
2013-10-20 15:17:00,67.9,39.3,30.03,ESE,112,1.6,3.1,35,0.00,,---,0.00,VWS V14.01,2013-10-20 20:17:00,
2013-10-20 15:22:00,67.9,40.0,30.03,ENE,68,0.0,0.0,36,0.00,,---,0.00,VWS V14.01,2013-10-20 20:22:00,
2013-10-20 15:27:00,67.7,39.8,30.00,WNW,292,0.0,0.0,36,0.00,,---,0.00,VWS V14.01,2013-10-20 20:27:00,
2013-10-20 15:32:00,67.7,40.5,30.00,NE,45,0.0,0.0,37,0.00,,---,0.04,VWS V14.01,2013-10-20 20:32:00,
2013-10-20 15:37:00,67.6,39.0,30.00,NNE,22,0.0,0.0,35,0.00,,---,0.00,VWS V14.01,2013-10-20 20:37:00,
2013-10-20 15:42:00,67.6,38.2,30.00,NW,315,1.3,2.2,34,0.00,,---,0.04,VWS V14.01,2013-10-20 20:42:00,
2013-10-20 15:47:00,67.6,39.0,30.00,SSE,158,0.0,0.0,35,0.00,,---,0.00,VWS V14.01,2013-10-20 20:47:00,
2013-10-20 15:52:00,67.6,39.0,30.00,WNW,292,0.0,0.0,35,0.00,,---,0.00,VWS V14.01,2013-10-20 20:52:00,
2013-10-20 15:57:00,67.6,39.7,30.03,WNW,292,0.0,0.0,36,0.00,,---,0.00,VWS V14.01,2013-10-20 20:57:00,
2013-10-20 16:02:00,67.2,40.1,30.03,NNE,22,0.0,0.0,37,0.00,,---,0.00,VWS V14.01,2013-10-20 21:02:00,
2013-10-20 16:07:00,67.4,38.8,30.03,NNW,338,0.0,0.0,35,0.00,,---,0.00,VWS V14.01,2013-10-20 21:07:00,
2013-10-20 16:12:00,67.4,38.8,30.00,North,0,0.0,1.6,35,0.00,,---,0.00,VWS V14.01,2013-10-20 21:12:00,
2013-10-20 16:17:00,67.0,39.2,30.00,WNW,292,0.0,2.2,36,0.00,,---,0.00,VWS V14.01,2013-10-20 21:17:00,
2013-10-20 16:22:00,67.0,39.2,30.00,NE,45,0.0,0.0,36,0.00,,---,0.00,VWS V14.01,2013-10-20 21:22:00,
2013-10-20 16:27:00,66.8,39.8,30.00,ENE,68,0.0,0.0,37,0.00,,---,0.00,VWS V14.01,2013-10-20 21:27:00,
2013-10-20 16:32:00,66.3,40.0,30.00,NNE,22,0.0,0.0,38,0.00,,---,0.00,VWS V14.01,2013-10-20 21:32:00,
2013-10-20 16:37:00,65.9,40.3,30.00,North,0,0.0,0.0,39,0.00,,---,0.00,VWS V14.01,2013-10-20 21:37:00,
2013-10-20 16:42:00,65.6,40.6,30.00,NE,45,0.0,0.0,40,0.00,,---,0.00,VWS V14.01,2013-10-20 21:42:00,
2013-10-20 16:47:00,65.4,41.1,30.00,NE,45,0.0,0.0,41,0.00,,---,0.04,VWS V14.01,2013-10-20 21:47:00,
2013-10-20 16:52:00,65.2,42.2,30.00,NE,45,0.0,0.0,43,0.00,,---,0.00,VWS V14.01,2013-10-20 21:52:00,
2013-10-20 16:57:00,64.7,42.3,30.00,NE,45,0.0,0.0,44,0.00,,---,0.00,VWS V14.01,2013-10-20 21:57:00,
2013-10-20 17:02:00,64.5,42.7,30.00,NE,45,0.0,0.0,45,0.00,,---,0.00,VWS V14.01,2013-10-20 22:02:00,
2013-10-20 17:07:00,64.3,42.5,30.00,NE,45,0.0,0.0,45,0.00,,---,0.00,VWS V14.01,2013-10-20 22:07:00,
2013-10-20 17:12:00,64.0,42.8,30.03,NE,45,0.0,0.0,46,0.00,,---,0.04,VWS V14.01,2013-10-20 22:12:00,
2013-10-20 17:17:00,63.6,41.9,30.03,NE,45,0.0,0.0,45,0.00,,---,0.00,VWS V14.01,2013-10-20 22:17:00,
2013-10-20 17:22:00,63.4,42.3,30.03,NE,45,0.0,0.0,46,0.00,,---,0.00,VWS V14.01,2013-10-20 22:22:00,
2013-10-20 17:27:00,63.1,42.0,30.00,NE,45,0.0,0.0,46,0.00,,---,0.00,VWS V14.01,2013-10-20 22:27:00,
2013-10-20 17:32:00,62.7,42.2,30.00,NE,45,0.0,0.0,47,0.00,,---,0.00,VWS V14.01,2013-10-20 22:32:00,
2013-10-20 17:37:00,62.3,42.4,30.00,NE,45,0.0,0.0,48,0.00,,---,0.04,VWS V14.01,2013-10-20 22:37:00,
2013-10-20 17:42:00,62.2,42.8,30.00,NE,45,0.0,0.0,49,0.00,,---,0.00,VWS V14.01,2013-10-20 22:42:00,
2013-10-20 17:47:00,62.0,42.6,30.00,NE,45,0.0,0.0,49,0.00,,---,0.00,VWS V14.01,2013-10-20 22:47:00,
2013-10-20 17:52:00,61.4,42.7,30.00,NE,45,0.0,0.0,50,0.00,,---,0.00,VWS V14.01,2013-10-20 22:52:00,
2013-10-20 17:56:00,61.1,42.8,30.00,NE,45,0.0,0.0,51,0.00,,---,0.04,VWS V14.01,2013-10-20 22:56:00,
2013-10-20 18:02:00,60.7,42.5,30.00,NE,45,0.0,0.0,51,0.00,,---,0.00,VWS V14.01,2013-10-20 23:02:00,
2013-10-20 18:07:00,60.4,43.2,30.00,NE,45,0.0,0.0,53,0.00,,---,0.00,VWS V14.01,2013-10-20 23:07:00,
2013-10-20 18:12:00,60.0,43.3,30.00,NE,45,0.0,0.0,54,0.00,,---,0.00,VWS V14.01,2013-10-20 23:12:00,
2013-10-20 18:17:00,59.6,43.9,30.00,NE,45,0.0,0.0,56,0.00,,---,0.00,VWS V14.01,2013-10-20 23:17:00,
2013-10-20 18:22:00,59.1,43.9,30.00,NE,45,0.0,0.0,57,0.00,,---,0.00,VWS V14.01,2013-10-20 23:22:00,
2013-10-20 18:27:00,58.7,44.0,30.03,NE,45,0.0,0.0,58,0.00,,---,0.00,VWS V14.01,2013-10-20 23:27:00,
2013-10-20 18:32:00,58.4,44.1,30.03,NE,45,0.0,0.0,59,0.00,,---,0.04,VWS V14.01,2013-10-20 23:32:00,
2013-10-20 18:37:00,57.8,44.5,30.03,NE,45,0.0,0.0,61,0.00,,---,0.00,VWS V14.01,2013-10-20 23:37:00,
2013-10-20 18:42:00,57.7,45.2,30.00,NE,45,0.0,0.0,63,0.00,,---,0.00,VWS V14.01,2013-10-20 23:42:00,
2013-10-20 18:47:00,56.9,44.5,30.00,NE,45,0.0,0.0,63,0.00,,---,0.04,VWS V14.01,2013-10-20 23:47:00,
2013-10-20 18:52:00,56.4,44.0,30.00,NNE,22,0.0,0.0,63,0.00,,---,0.00,VWS V14.01,2013-10-20 23:52:00,
2013-10-20 18:57:00,56.2,44.6,30.00,NNE,22,0.0,0.0,65,0.00,,---,0.00,VWS V14.01,2013-10-20 23:57:00,
2013-10-20 19:02:00,55.9,43.9,30.00,North,0,0.0,0.0,64,0.00,,---,0.00,VWS V14.01,2013-10-21 00:02:00,
2013-10-20 19:07:00,55.1,44.0,30.00,North,0,0.0,0.0,66,0.00,,---,0.00,VWS V14.01,2013-10-21 00:07:00,
2013-10-20 19:12:00,54.8,44.0,30.00,North,0,0.0,0.0,67,0.00,,---,0.00,VWS V14.01,2013-10-21 00:12:00,
2013-10-20 19:17:00,54.6,44.3,30.00,North,0,0.0,0.0,68,0.00,,---,0.00,VWS V14.01,2013-10-21 00:17:00,
2013-10-20 19:22:00,54.4,44.5,30.00,North,0,0.0,0.0,69,0.00,,---,0.00,VWS V14.01,2013-10-21 00:22:00,
2013-10-20 19:27:00,53.9,44.0,30.00,North,0,0.0,0.0,69,0.00,,---,0.04,VWS V14.01,2013-10-21 00:27:00,
2013-10-20 19:32:00,53.5,44.0,30.00,North,0,0.0,0.0,70,0.00,,---,0.00,VWS V14.01,2013-10-21 00:32:00,
2013-10-20 19:37:00,53.2,43.6,30.00,North,0,0.0,0.0,70,0.00,,---,0.00,VWS V14.01,2013-10-21 00:37:00,
2013-10-20 19:42:00,53.2,44.0,30.00,North,0,0.0,0.0,71,0.00,,---,0.04,VWS V14.01,2013-10-21 00:42:00,
2013-10-20 19:47:00,52.8,44.0,30.00,North,0,0.0,0.0,72,0.00,,---,0.04,VWS V14.01,2013-10-21 00:47:00,
2013-10-20 19:52:00,52.6,43.9,30.00,North,0,0.0,0.0,72,0.00,,---,0.00,VWS V14.01,2013-10-21 00:52:00,
2013-10-20 19:57:00,52.6,44.6,30.03,North,0,0.0,0.0,74,0.00,,---,0.00,VWS V14.01,2013-10-21 00:57:00,
2013-10-20 20:02:00,52.6,44.6,30.03,North,0,0.0,0.0,74,0.00,,---,0.00,VWS V14.01,2013-10-21 01:02:00,
2013-10-20 20:06:00,52.4,44.4,30.03,North,0,0.0,0.0,74,0.00,,---,0.04,VWS V14.01,2013-10-21 01:06:00,
2013-10-20 20:11:00,52.3,44.6,30.03,North,0,0.0,0.0,75,0.00,,---,0.00,VWS V14.01,2013-10-21 01:11:00,
2013-10-20 20:17:00,52.3,44.6,30.03,North,0,0.0,0.0,75,0.00,,---,0.00,VWS V14.01,2013-10-21 01:17:00,
2013-10-20 20:22:00,51.7,44.1,30.03,North,0,0.0,0.0,75,0.00,,---,0.00,VWS V14.01,2013-10-21 01:22:00,
2013-10-20 20:27:00,51.7,44.1,30.03,North,0,0.0,0.0,75,0.00,,---,0.00,VWS V14.01,2013-10-21 01:27:00,
2013-10-20 20:32:00,51.5,43.9,30.03,North,0,0.0,0.0,75,0.00,,---,0.00,VWS V14.01,2013-10-21 01:32:00,
2013-10-20 20:37:00,51.4,43.7,30.03,North,0,0.0,0.0,75,0.00,,---,0.00,VWS V14.01,2013-10-21 01:37:00,
2013-10-20 20:42:00,51.2,43.9,30.03,North,0,0.0,0.0,76,0.00,,---,0.00,VWS V14.01,2013-10-21 01:42:00,
2013-10-20 20:47:00,51.2,43.9,30.03,North,0,0.0,0.0,76,0.00,,---,0.00,VWS V14.01,2013-10-21 01:47:00,
2013-10-20 20:52:00,51.2,43.9,30.03,North,0,0.0,0.0,76,0.00,,---,0.00,VWS V14.01,2013-10-21 01:52:00,
2013-10-20 20:57:00,50.8,43.9,30.03,North,0,0.0,0.0,77,0.00,,---,0.00,VWS V14.01,2013-10-21 01:57:00,
2013-10-20 21:02:00,50.8,43.9,30.03,North,0,0.0,0.0,77,0.00,,---,0.04,VWS V14.01,2013-10-21 02:02:00,
2013-10-20 21:07:00,50.6,43.7,30.03,North,0,0.0,0.0,77,0.00,,---,0.00,VWS V14.01,2013-10-21 02:07:00,
2013-10-20 21:12:00,50.5,43.5,30.03,North,0,0.0,0.0,77,0.00,,---,0.00,VWS V14.01,2013-10-21 02:12:00,
2013-10-20 21:17:00,50.1,42.8,30.03,North,0,0.0,0.0,76,0.00,,---,0.00,VWS V14.01,2013-10-21 02:17:00,
2013-10-20 21:22:00,49.9,43.0,30.03,North,0,0.0,0.0,77,0.00,,---,0.04,VWS V14.01,2013-10-21 02:22:00,
2013-10-20 21:27:00,49.7,42.8,30.03,North,0,0.0,0.0,77,0.00,,---,0.00,VWS V14.01,2013-10-21 02:27:00,
2013-10-20 21:32:00,49.7,43.2,30.03,North,0,0.0,0.0,78,0.00,,---,0.00,VWS V14.01,2013-10-21 02:32:00,
2013-10-20 21:37:00,49.6,42.7,30.03,North,0,0.0,0.0,77,0.00,,---,0.00,VWS V14.01,2013-10-21 02:37:00,
2013-10-20 21:42:00,49.4,42.5,30.03,North,0,0.0,0.0,77,0.00,,---,0.00,VWS V14.01,2013-10-21 02:42:00,
2013-10-20 21:47:00,49.0,42.5,30.03,North,0,0.0,0.0,78,0.00,,---,0.04,VWS V14.01,2013-10-21 02:47:00,
2013-10-20 21:52:00,49.0,42.5,30.03,North,0,0.0,0.0,78,0.00,,---,0.00,VWS V14.01,2013-10-21 02:52:00,
2013-10-20 21:57:00,48.8,42.6,30.03,North,0,0.0,0.0,79,0.00,,---,0.04,VWS V14.01,2013-10-21 02:57:00,
2013-10-20 22:02:00,48.8,42.6,30.03,North,0,0.0,0.0,79,0.00,,---,0.00,VWS V14.01,2013-10-21 03:02:00,
2013-10-20 22:07:00,48.8,42.6,30.03,North,0,0.0,0.0,79,0.00,,---,0.00,VWS V14.01,2013-10-21 03:07:00,
2013-10-20 22:12:00,48.7,42.8,30.03,North,0,0.0,0.0,80,0.00,,---,0.00,VWS V14.01,2013-10-21 03:12:00,
2013-10-20 22:16:00,48.7,42.5,30.03,North,0,0.0,0.0,79,0.00,,---,0.00,VWS V14.01,2013-10-21 03:16:00,
2013-10-20 22:21:00,48.5,42.3,30.03,North,0,0.0,0.0,79,0.00,,---,0.00,VWS V14.01,2013-10-21 03:21:00,
2013-10-20 22:26:00,48.5,42.6,30.03,North,0,0.0,0.0,80,0.00,,---,0.00,VWS V14.01,2013-10-21 03:26:00,
2013-10-20 22:31:00,48.1,41.9,30.03,North,0,0.0,0.0,79,0.00,,---,0.00,VWS V14.01,2013-10-21 03:31:00,
2013-10-20 22:37:00,48.1,42.2,30.03,North,0,0.0,0.0,80,0.00,,---,0.00,VWS V14.01,2013-10-21 03:37:00,
2013-10-20 22:42:00,48.1,42.2,30.03,North,0,0.0,0.0,80,0.00,,---,0.00,VWS V14.01,2013-10-21 03:42:00,
2013-10-20 22:47:00,48.1,42.2,30.03,North,0,0.0,0.0,80,0.00,,---,0.00,VWS V14.01,2013-10-21 03:47:00,
2013-10-20 22:52:00,47.9,42.1,30.03,North,0,0.0,0.0,80,0.00,,---,0.00,VWS V14.01,2013-10-21 03:52:00,
2013-10-20 22:57:00,47.8,41.9,30.03,North,0,0.0,0.0,80,0.00,,---,0.04,VWS V14.01,2013-10-21 03:57:00,
2013-10-20 23:01:00,47.8,41.9,30.03,North,0,0.0,0.0,80,0.00,,---,0.00,VWS V14.01,2013-10-21 04:01:00,
2013-10-20 23:02:00,47.8,41.9,30.03,North,0,0.0,0.0,80,0.00,,---,0.00,VWS V14.01,2013-10-21 04:02:00,
2013-10-20 23:07:00,47.6,42.0,30.03,North,0,0.0,0.0,81,0.00,,---,0.00,VWS V14.01,2013-10-21 04:07:00,
2013-10-20 23:12:00,47.6,42.0,30.03,North,0,0.0,0.0,81,0.00,,---,0.00,VWS V14.01,2013-10-21 04:12:00,
2013-10-20 23:17:00,47.6,42.0,30.03,North,0,0.0,0.0,81,0.00,,---,0.00,VWS V14.01,2013-10-21 04:17:00,
2013-10-20 23:22:00,47.4,41.9,30.03,North,0,0.0,0.0,81,0.00,,---,0.04,VWS V14.01,2013-10-21 04:22:00,
2013-10-20 23:27:00,47.2,41.7,30.03,North,0,0.0,0.0,81,0.00,,---,0.04,VWS V14.01,2013-10-21 04:27:00,
2013-10-20 23:32:00,47.2,41.7,30.03,North,0,0.0,0.0,81,0.00,,---,0.00,VWS V14.01,2013-10-21 04:32:00,
2013-10-20 23:37:00,47.2,41.7,30.03,North,0,0.0,0.0,81,0.00,,---,0.00,VWS V14.01,2013-10-21 04:37:00,
2013-10-20 23:42:00,46.9,41.0,30.03,North,0,0.0,0.0,80,0.00,,---,0.00,VWS V14.01,2013-10-21 04:42:00,
2013-10-20 23:47:00,46.7,41.2,30.03,NNW,338,0.0,0.0,81,0.00,,---,0.00,VWS V14.01,2013-10-21 04:47:00,
2013-10-20 23:52:00,46.3,40.5,30.03,NNW,338,0.0,0.0,80,0.00,,---,0.00,VWS V14.01,2013-10-21 04:52:00,
2013-10-20 23:57:00,46.3,40.8,30.03,NNW,338,0.0,0.0,81,0.00,,---,0.00,VWS V14.01,2013-10-21 04:57:00,